{"data":{"norad_id":59318,"epoch":"2026-05-25T01:02:11.449248Z","epoch_age_seconds":71660,"freshness":"FRESH","line1":"1 59318U 24056Y   26145.04318807  .00000093  00000+0  12910-4 0  9990","line2":"2 59318  42.9994 159.3301 0001355 308.2007  51.8722 15.27581459122839","mean_motion":15.27581459,"eccentricity":0.0001355,"inclination_deg":42.9994,"raan_deg":159.3301,"arg_perigee_deg":308.2007,"mean_anomaly_deg":51.8722,"bstar":1.291e-5,"rev_number":12283,"period_min":94.266658679051,"perigee_km":482.11503714821,"apogee_km":483.9744173963,"semimajor_km":6861.1817272723,"source":"CELESTRAK","updated_at":"2026-05-25T13:38:18.902109Z"}}